Location: Courcelles
(49.2596°N, 1.7419°E)
Time: 23:15:06
(UTC+00:00)

SKYMED 2 - Pass Details

Date: 17 November 2025
Orbit: 621 x 623 km, 97.9° (Epoch: 05 December)

Event Time Altitude Azimuth Distance (km) Brightness Sun altitude
Exits shadow 17:44:55 11° 24° (NNE) 1,957 5.8 -15.5°
Maximum altitude 17:49:02 50° 100° (E) 802 3.7 -16.2°
Drops below altitude 10° 17:53:14 10° 176° (S) 1,986 6.2 -16.8°
Sets 17:55:28 0° 181° (S) 2,888 7.1 -17.2°
